This demonstration page uses our WeatherBlox Daily Observations layout. Learn more.

Left ArrowRight Arrow

38.20091, -84.87328

Hourly Observations for August 25, 2021

Temp ( °F °C ) Dew Point ( °F °C ) Humidity (%) Winds ( mph kmh ) Pressure ( in mb ) Visibility ( mi km ) Precip ( " mm )
12:53 am 00:53 Clear with Mist and Fog 75 23.9 73 22.8 94 94 Calm 30.05 1018 6 10 0.00 0.00
1:53 am 01:53 Clear with Mist and Fog 75 23.9 73 22.8 94 94 Calm 30.06 1018 6 10 0.00 0.00
2:53 am 02:53 Clear with Mist and Fog 73 22.8 72 22.2 96 96 Calm 30.07 1018 4 6 0.00 0.00
3:53 am 03:53 Clear with Mist and Fog 74 23.3 72 22.2 94 94 Calm 30.06 1018 4 6 0.00 0.00
4:53 am 04:53 Partly Cloudy with Mist and Fog 74 23.3 72 22.2 94 94 Calm 30.07 1018 5 8 0.00 0.00
5:53 am 05:53 Mostly Clear with Mist and Fog 73 22.8 72 22.2 96 96 Calm 30.06 1018 5 8 0.00 0.00
6:53 am 06:53 Clear with Mist and Fog 74 23.3 72 22.2 94 94 Calm 30.06 1018 5 8 0.00 0.00
7:53 am 07:53 Sunny with Mist and Fog 74 23.3 72 22.2 94 94 Calm 30.08 1019 4 6 0.00 0.00
8:53 am 08:53 Sunny 79 26.1 74 23.3 85 85 SW 3 6 30.10 1019 7 11 0.00 0.00
9:53 am 09:53 Sunny 83 28.3 73 22.8 72 72 SSW 5 7 30.11 1020 10 16 0.00 0.00
10:53 am 10:53 Sunny 87 30.6 75 23.9 67 67 VRB 3 6 30.13 1020 10 16 0.00 0.00
11:53 am 11:53 Sunny 88 31.1 73 22.8 61 61 W 5 7 30.13 1020 10 16 0.00 0.00
12:53 pm 12:53 Sunny 90 32.2 72 22.2 56 56 W 8 13 30.12 1020 10 16 0.00 0.00
1:53 pm 13:53 Mostly Sunny 92 33.3 72 22.2 52 52 W 6 9 30.11 1020 10 16 0.00 0.00
2:29 pm 14:29 Partly Cloudy with Nearby Thunderstorms 92 33.3 73 22.8 54 54 WSW 6 9 30.08 1018 10 16 0.00 0.00
2:53 pm 14:53 Sunny with Nearby Thunderstorms 90 32.2 72 22.2 56 56 W 6 9 30.10 1019 10 16 0.00 0.00
3:02 pm 15:02 Mostly Sunny 87 30.6 73 22.8 63 63 NNW 9 15 30.08 1019 10 16 0.00 0.00
3:53 pm 15:53 Partly Cloudy 83 28.3 71 21.7 67 67 NW 3 6 30.11 1020 10 16 0.00 0.00
4:53 pm 16:53 Mostly Sunny 81 27.2 74 23.3 79 79 Calm 30.10 1019 10 16 0.02 0.51
5:53 pm 17:53 Sunny 83 28.3 69 20.6 63 63 NNE 3 6 30.09 1019 10 16 0.00 0.00
6:53 pm 18:53 Sunny 82 27.8 70 21.1 67 67 Calm 30.07 1018 10 16 0.00 0.00
7:53 pm 19:53 Sunny 80 26.7 72 22.2 76 76 NNW 5 7 30.06 1018 10 16 0.00 0.00
8:53 pm 20:53 Clear 77 25 71 21.7 82 82 NW 3 6 30.07 1018 10 16 0.00 0.00
9:53 pm 21:53 Clear 73 22.8 71 21.7 94 94 Calm 30.08 1019 10 16 0.00 0.00
10:53 pm 22:53 Clear 74 23.3 71 21.7 91 91 Calm 30.10 1019 10 16 0.00 0.00
11:53 pm 23:53 Clear 73 22.8 70 21.1 90 90 SE 3 6 30.11 1020 10 16 0.00 0.00

Powered by AerisWeather